Wind_Speed
118 118 118 118 118 118 118 119 120 120 120 121 121 122 122 123 123 124 124 125 125 126 126 125 125 125 125 125 125 125 124 124 123 122 122 121 120 120 120 119 118 117 117 117 118 118 119 119 119 118 118 117 117 117 116 116 115 115 114 114 113 113 113
117 117 117 117 117 118 118 118 119 119 120 120 120 121 121 122 122 122 123 123 123 124 124 124 124 123 123 123 123 123 122 122 121 121 120 119 118 118 118 117 116 115 114 114 115 115 116 117 117 116 116 115 115 115 115 115 114 113 113 112 112 112 111
117 117 117 117 117 117 117 118 118 119 119 119 120 120 120 120 121 121 121 121 122 122 122 122 122 121 121 121 121 120 120 120 119 119 118 118 117 116 116 116 115 114 113 112 112 113 113 114 115 114 114 114 114 114 114 113 113 113 112 112 111 111 110
117 117 117 117 118 118 118 118 119 119 119 119 119 120 120 120 120 120 120 120 120 121 121 121 120 120 120 120 120 119 119 119 118 118 118 117 116 116 115 115 115 114 112 111 111 111 111 113 114 113 113 113 113 113 113 113 112 112 111 111 111 110 110
118 118 118 118 118 118 119 119 119 119 120 120 120 120 120 120 120 120 120 120 120 121 121 120 120 120 120 120 119 119 119 119 119 118 117 117 116 116 115 115 115 114 113 111 111 111 111 112 113 113 112 112 112 112 112 112 112 112 111 111 111 111 110
118 118 118 119 119 119 119 119 119 120 120 120 120 121 121 121 121 121 121 121 121 121 121 121 121 121 121 120 120 119 119 119 119 118 118 117 117 116 116 115 115 114 114 112 111 111 111 111 112 112 112 112 112 112 112 112 112 112 112 112 112 111 111
117 118 118 119 119 119 119 119 119 119 120 120 120 120 121 121 121 121 121 121 121 121 121 121 121 121 121 121 120 120 119 119 119 119 118 118 117 117 117 116 115 115 114 113 112 112 111 111 111 112 112 111 112 111 111 111 112 112 113 112 112 111 110
116 117 117 118 118 119 119 119 119 119 119 120 120 120 120 121 121 121 121 121 122 122 122 122 121 121 121 121 121 120 120 120 120 119 119 118 118 118 117 116 116 115 115 114 113 112 112 111 111 111 111 111 111 111 110 111 112 112 112 112 111 111 110
114 115 116 116 117 118 118 118 119 119 119 119 119 120 120 120 121 121 121 121 121 122 122 122 122 122 122 121 121 121 120 120 120 120 119 119 119 118 117 117 116 116 115 114 113 112 112 111 110 110 110 110 111 111 111 112 112 111 111 112 112 111 110
114 114 115 115 116 117 117 117 118 118 118 119 119 120 120 120 120 120 121 121 121 122 122 122 122 122 122 122 122 121 121 121 120 120 119 119 119 119 118 118 117 116 116 115 114 113 112 112 111 110 110 110 111 112 112 112 112 112 112 112 111 110 110
114 114 115 116 116 117 117 117 117 118 118 119 119 119 120 120 120 120 121 121 121 121 121 122 122 122 122 122 122 122 122 121 121 120 120 120 119 119 119 118 117 117 116 116 115 114 113 112 111 111 111 111 112 112 112 113 112 112 112 111 110 110 109
113 114 114 115 116 117 117 118 118 118 118 119 119 119 120 120 120 120 120 121 121 121 122 122 122 122 122 122 122 122 122 121 121 121 120 120 120 120 119 119 118 118 117 117 116 115 113 112 112 112 112 112 112 113 113 113 112 111 111 111 110 109 109
113 113 114 114 115 115 116 117 117 117 118 118 119 119 120 120 120 120 120 121 121 121 122 122 122 122 122 122 122 122 122 122 121 121 121 121 120 120 120 120 119 119 118 118 117 116 114 113 113 113 113 113 113 114 113 112 112 111 111 111 110 109 109
113 113 113 114 114 115 115 116 116 116 116 116 117 117 118 118 118 119 119 120 120 120 121 121 122 122 122 122 122 122 122 122 122 122 122 121 121 121 120 120 120 120 119 119 118 116 114 114 114 114 113 114 114 114 113 112 112 112 112 111 110 109 109
112 112 112 113 113 113 114 115 116 116 116 116 116 116 116 116 116 117 117 118 118 119 119 119 120 121 121 121 121 121 121 121 121 121 121 121 121 120 120 120 120 120 119 119 118 116 115 115 115 115 114 114 114 114 114 113 113 113 112 111 110 110 109
111 111 112 112 112 112 113 114 114 115 115 116 116 116 115 115 115 115 116 116 117 117 118 118 119 120 120 120 120 120 119 119 119 119 119 119 119 119 119 119 119 119 118 118 117 116 115 114 115 115 115 115 114 114 114 114 114 113 112 112 111 110 110
111 111 111 112 112 112 112 113 113 114 114 115 115 115 115 115 115 115 115 115 116 116 117 118 119 119 119 119 119 119 119 119 119 118 118 118 119 119 119 118 118 118 117 117 116 115 114 114 114 114 115 115 115 115 115 115 114 112 112 113 113 111 111
112 112 112 112 112 112 112 113 113 114 114 114 115 115 115 114 114 114 114 115 115 116 117 117 118 118 118 118 118 118 118 119 119 118 118 118 118 118 118 118 118 118 117 116 116 115 114 114 114 114 114 115 115 115 116 116 114 113 114 115 114 113 113
113 113 113 113 113 113 113 113 114 114 114 114 115 115 115 114 114 114 114 115 115 116 116 116 117 117 118 118 118 118 118 119 119 119 118 118 118 117 117 117 118 118 117 116 116 115 115 114 114 114 114 114 114 115 115 115 115 115 116 116 115 116 116
112 113 113 114 114 114 114 114 114 115 115 115 115 115 115 114 114 114 115 115 115 115 115 116 116 117 118 118 118 118 118 119 119 119 119 119 118 117 116 117 118 117 117 116 116 116 115 115 115 114 114 114 114 115 115 115 115 116 116 117 117 117 117
111 112 112 113 113 113 113 113 113 114 115 115 116 116 115 115 115 115 115 115 115 115 115 115 116 116 117 117 117 117 118 118 119 119 119 119 119 118 118 118 118 117 117 117 116 116 116 116 115 114 114 114 114 115 115 115 115 115 116 117 117 118 117
110 110 111 112 113 113 113 113 112 112 113 114 114 115 115 114 114 114 114 114 114 114 115 115 115 116 116 117 117 117 117 117 118 118 118 118 119 119 119 118 118 117 117 117 117 117 117 116 116 116 115 115 115 115 116 116 116 116 116 116 116 117 117
109 110 110 111 112 112 112 112 112 112 112 113 113 113 113 113 113 113 113 112 112 112 113 113 114 115 116 117 117 117 116 116 116 116 116 117 117 118 118 118 118 117 117 117 117 117 117 116 117 117 118 117 117 116 116 116 116 117 116 115 115 116 116
108 109 109 110 111 111 111 111 111 111 112 112 113 113 113 113 112 111 111 111 110 111 111 111 112 113 114 115 115 116 115 115 115 115 115 115 116 116 117 117 117 116 116 116 115 115 116 116 116 117 118 119 118 118 118 117 117 117 117 116 115 115 116
105 106 107 108 109 110 110 111 111 111 112 112 112 112 112 112 111 111 110 110 110 110 110 110 111 112 112 113 113 113 114 114 114 114 114 114 114 115 116 116 116 115 115 114 114 114 114 115 115 115 116 117 117 118 118 119 118 117 116 116 116 116 116
100 102 103 104 105 107 108 109 109 110 111 111 111 111 111 110 110 110 109 109 109 109 109 110 110 111 111 112 112 112 112 112 112 112 112 112 113 114 114 114 114 114 114 114 114 114 114 114 113 114 114 114 115 116 117 118 117 116 115 115 115 115 115
96 97 99 100 101 103 104 106 107 108 109 109 109 109 109 109 109 108 108 107 107 107 108 108 108 109 111 111 111 111 111 111 111 111 112 112 112 112 113 113 113 113 113 113 113 113 113 113 113 113 113 114 114 115 115 115 116 115 115 114 114 115 114
94 95 96 96 97 99 100 101 103 105 106 106 106 106 107 107 107 107 107 107 106 106 106 106 106 107 108 108 108 109 109 109 110 111 111 112 112 112 112 112 112 112 112 112 112 112 112 113 112 113 113 113 114 114 114 114 115 115 114 114 114 114 113
93 93 93 94 94 96 97 98 100 101 102 103 103 103 104 104 105 105 105 106 106 106 106 105 106 106 106 106 106 105 106 106 107 108 109 110 111 111 112 112 112 112 111 111 112 112 112 112 112 112 112 112 113 113 113 113 114 114 113 113 113 113 112
92 92 92 92 92 93 94 95 97 98 99 100 100 100 100 101 101 102 102 103 104 104 104 104 105 105 105 105 105 104 104 104 104 105 106 107 108 109 110 110 110 110 110 110 110 110 111 111 111 111 111 111 112 112 112 112 112 113 112 112 112 112 111
90 91 90 90 90 90 91 92 93 95 96 97 98 98 98 98 98 99 99 100 100 100 101 101 102 103 104 104 104 103 103 103 103 104 104 105 105 106 107 108 108 108 108 108 108 108 109 109 109 109 109 110 110 110 110 111 111 111 111 111 111 111 111
89 88 89 89 89 89 90 90 91 92 93 94 95 95 94 94 95 96 97 97 97 97 98 98 99 100 101 102 102 102 102 102 102 103 103 103 104 104 105 106 106 106 106 106 106 106 106 106 107 107 107 107 107 108 108 108 109 109 109 109 109 109 109
88 87 87 87 87 87 88 89 90 90 91 92 93 92 92 92 92 93 93 93 94 95 95 95 96 97 98 98 99 99 99 100 100 100 101 101 101 102 103 104 104 104 104 104 104 104 104 104 104 104 104 105 105 105 105 106 106 106 106 106 106 106 107
87 87 86 86 86 86 86 87 88 89 90 90 90 90 90 90 90 90 90 91 91 92 92 93 94 94 95 95 96 96 97 97 98 98 98 98 98 99 100 101 101 101 101 102 102 102 102 102 102 102 102 102 103 103 103 103 103 103 103 103 103 103 103
84 84 84 85 85 85 85 86 87 88 88 88 88 88 88 89 89 89 89 88 89 89 90 91 91 91 92 92 93 93 94 95 95 95 95 95 95 96 97 98 98 98 98 98 99 99 99 100 100 100 100 100 100 100 100 101 101 101 101 101 101 100 100
82 81 80 82 83 84 84 85 85 86 87 87 86 86 87 87 87 87 87 87 86 86 87 88 89 89 89 89 90 91 91 92 92 92 92 92 92 93 94 95 95 95 95 96 96 96 96 97 97 97 97 97 97 97 98 98 98 98 98 98 98 98 98
Wind_Direction
258 259 259 259 259 259 259 259 260 260 260 260 260 260 261 261 261 261 262 262 263 263 264 264 264 265 265 265 266 266 266 267 267 267 267 267 267 267 267 267 267 267 267 267 268 268 269 269 269 269 269 270 270 270 269 269 269 269 270 270 270 270 270
259 259 259 259 259 260 260 260 260 260 260 260 260 260 260 260 261 261 261 262 262 262 263 263 264 264 265 265 265 266 266 267 267 267 267 267 267 267 267 267 267 267 267 268 268 268 269 269 269 269 269 269 269 269 269 270 270 270 269 269 269 270 270
258 259 259 259 259 259 259 260 260 260 260 261 261 261 261 261 261 261 262 262 262 263 263 263 264 264 265 265 265 266 266 266 267 267 267 267 267 268 268 268 268 268 268 268 268 269 269 270 270 270 270 270 270 270 270 270 270 270 270 270 270 270 269
258 258 259 259 259 259 259 259 259 260 260 260 261 261 261 261 261 262 262 262 263 263 263 264 264 264 264 265 265 265 266 266 267 267 267 267 268 268 268 268 268 268 268 268 269 269 269 269 270 270 270 270 271 270 270 270 270 270 270 270 270 270 269
259 259 259 259 259 259 259 259 260 260 260 260 260 261 261 261 261 262 262 262 263 263 263 264 264 264 265 265 265 266 266 266 267 267 267 268 268 268 268 268 269 269 269 269 269 269 269 269 270 270 270 270 270 270 271 271 271 271 270 270 270 269 269
258 259 259 259 259 259 259 260 260 260 260 261 261 261 261 262 262 262 262 263 263 263 263 264 264 265 265 265 266 266 266 267 267 267 267 268 268 268 268 268 268 269 269 269 269 269 269 269 270 270 270 270 270 270 270 271 271 270 270 270 269 269 269
258 258 258 259 259 259 259 259 260 260 260 260 261 261 261 262 262 262 263 263 263 263 264 264 264 265 265 265 266 266 266 266 267 267 267 267 267 268 268 268 268 268 268 268 268 268 268 268 269 269 270 270 270 270 270 270 270 270 270 270 270 270 270
257 258 258 258 259 259 259 259 259 260 260 260 260 261 261 261 262 262 262 263 263 263 264 264 264 264 265 265 265 266 266 266 266 267 267 267 267 267 268 268 268 268 268 268 268 268 268 268 268 269 269 269 270 270 270 270 270 270 271 271 271 271 271
258 258 258 258 259 259 259 259 260 260 260 260 260 260 261 261 261 261 262 262 263 263 263 264 264 264 265 265 265 265 266 266 266 266 266 267 267 267 267 267 267 267 267 268 268 268 268 268 268 268 268 269 269 269 269 269 269 270 270 270 270 271 271
259 259 259 259 259 259 259 259 260 260 260 260 261 261 261 261 261 261 262 262 262 263 263 263 264 264 264 265 265 265 265 265 266 266 266 266 266 266 266 267 267 267 267 267 267 267 267 268 268 268 268 268 268 268 268 268 269 269 269 269 270 270 271
259 259 259 259 260 260 260 260 260 260 260 260 260 260 261 261 261 262 262 262 262 262 263 263 263 264 264 264 265 265 265 265 266 266 266 266 266 266 266 267 267 267 267 267 267 267 267 268 268 268 268 268 268 268 268 268 268 268 269 269 269 270 270
260 260 260 260 260 260 260 260 260 260 260 260 260 260 261 261 261 261 262 262 262 263 263 263 263 264 264 264 265 265 265 266 266 266 266 266 267 267 267 267 267 267 267 268 267 268 268 268 268 267 267 267 267 267 268 268 268 269 269 269 269 269 269
260 260 260 260 260 260 261 261 261 260 260 260 260 261 261 261 261 262 262 262 262 263 263 263 264 264 264 265 265 265 266 266 266 266 267 267 267 267 268 268 268 268 268 268 268 268 268 268 268 267 267 267 267 267 268 268 268 268 268 268 268 269 269
260 260 260 260 260 261 261 261 261 261 261 261 261 261 261 261 262 262 262 263 263 263 263 264 264 264 264 265 265 265 265 266 266 266 267 267 267 267 267 268 268 268 268 268 268 268 268 268 268 268 267 267 267 268 268 268 268 268 268 268 268 269 269
261 261 261 261 260 260 261 261 261 262 262 262 262 262 262 262 262 262 262 263 263 263 264 264 264 264 265 265 265 265 265 265 266 266 266 267 267 267 267 268 268 268 268 268 268 268 268 268 268 268 268 268 268 268 268 268 268 268 268 268 268 268 268
261 261 261 261 261 261 261 261 261 261 262 262 262 262 262 262 262 262 262 262 263 263 263 263 264 264 264 264 264 264 265 265 265 265 266 266 266 267 267 267 267 267 267 268 268 268 268 268 268 268 268 268 268 268 268 268 268 268 269 269 269 269 269
262 262 262 262 262 261 261 261 261 261 261 261 262 262 262 262 262 262 262 262 262 262 262 262 262 263 263 263 264 264 264 264 264 264 264 265 265 265 265 266 266 266 266 267 267 267 267 267 267 267 268 268 268 269 269 269 269 269 269 269 269 269 269
263 263 263 262 262 262 262 261 261 261 261 261 261 261 261 261 261 261 261 261 262 262 262 262 262 262 263 263 263 263 263 264 264 264 263 263 263 264 264 265 265 265 265 266 266 266 266 266 266 266 266 267 267 268 268 268 269 269 269 269 269 269 268
262 263 263 263 262 262 262 262 262 262 261 261 261 261 261 261 261 261 261 261 261 261 261 262 262 262 263 263 263 263 263 264 264 264 263 263 263 263 264 264 264 265 265 265 265 265 265 265 265 265 265 265 266 266 266 267 267 268 268 268 268 268 268
262 262 262 262 262 262 262 262 262 262 262 262 262 262 261 261 261 261 261 261 261 261 261 261 261 261 261 262 262 262 263 263 264 264 264 264 264 264 264 264 264 265 265 265 265 265 265 265 265 265 265 265 265 265 265 266 266 266 266 266 267 267 267
263 263 263 263 263 262 262 262 262 262 262 262 262 262 262 262 262 261 261 261 261 261 261 261 261 261 261 261 261 261 261 262 262 263 263 264 264 264 264 264 264 265 265 265 265 266 266 266 266 265 265 265 265 265 265 265 265 265 265 265 266 266 266
263 263 263 263 263 263 263 263 263 263 263 263 263 263 263 262 262 262 262 262 262 262 262 262 262 263 263 263 262 262 261 261 261 262 262 263 263 264 264 264 264 265 265 265 265 266 266 266 267 267 266 266 266 266 266 266 265 265 265 265 265 266 266
263 263 263 263 263 264 264 264 264 263 263 263 263 263 263 263 263 262 262 262 262 262 262 262 262 263 263 263 263 263 263 263 263 263 263 263 263 264 264 264 264 264 264 264 265 265 266 266 266 267 267 267 267 267 266 266 266 266 266 266 266 267 267
262 263 263 263 263 264 264 264 264 264 264 263 263 263 263 263 263 263 263 263 263 263 262 262 262 262 262 262 263 263 263 264 264 264 264 264 264 264 264 264 264 264 264 264 264 265 265 265 265 266 266 267 267 267 267 267 267 267 267 268 268 267 268
261 262 262 262 263 263 263 264 264 264 264 264 263 263 264 264 264 264 264 264 263 263 263 263 263 263 263 263 263 263 263 263 263 263 263 263 264 264 264 265 265 265 265 265 265 265 265 265 265 265 265 266 266 267 267 267 267 267 267 268 268 268 268
261 261 261 261 261 262 262 263 263 263 263 263 264 264 264 264 264 264 263 263 263 263 263 263 263 263 263 263 263 263 263 263 263 263 263 263 263 263 263 264 264 264 265 265 265 265 265 265 265 265 265 265 266 266 266 267 267 267 267 267 268 267 267
262 261 261 261 261 261 261 261 262 262 262 263 263 263 264 264 264 264 264 264 263 263 263 262 262 262 262 262 263 263 263 263 264 264 264 264 263 263 263 263 263 264 264 264 264 264 265 265 265 265 265 266 266 266 266 267 267 268 268 268 268 268 268
263 263 262 262 261 261 261 261 261 261 262 262 262 262 263 263 264 264 264 264 264 264 263 263 262 262 262 262 262 262 262 262 263 263 263 263 264 264 264 263 263 263 263 264 264 264 264 264 265 265 265 265 265 266 266 266 267 267 268 268 268 268 268
265 264 263 263 263 262 262 262 262 262 262 262 262 262 262 262 262 263 263 264 264 264 264 264 264 263 263 263 262 262 262 262 262 262 262 262 263 263 263 263 263 263 264 264 264 264 264 264 264 265 265 265 265 265 266 266 266 267 267 267 268 268 269
266 265 265 264 263 263 263 263 263 263 263 263 262 262 262 262 262 262 262 262 262 263 263 263 264 264 264 264 264 263 263 262 262 262 262 262 262 262 263 263 263 263 263 263 263 263 263 264 264 264 265 265 265 265 266 266 266 267 267 267 268 268 269
266 266 266 265 265 264 263 263 263 263 263 263 263 262 262 262 262 262 262 262 262 262 262 262 263 263 263 263 263 263 263 263 263 263 263 262 262 262 263 263 263 263 263 263 263 263 263 263 263 264 264 264 264 265 265 266 266 266 267 267 268 268 269
267 266 266 266 266 265 265 264 264 263 263 263 263 263 263 262 262 262 262 262 262 262 262 262 262 262 262 263 263 263 263 263 263 262 263 263 263 263 263 263 263 263 263 264 264 263 263 263 263 263 264 264 264 264 264 265 265 266 266 266 267 267 268
268 267 266 266 266 265 265 265 264 264 263 263 263 263 263 263 262 262 262 262 262 262 262 262 262 262 262 262 263 263 263 262 262 262 262 262 262 263 263 263 264 264 264 264 264 264 264 264 264 264 264 264 264 265 265 265 265 265 266 266 266 266 267
267 268 267 267 266 266 265 265 265 265 264 264 264 264 264 263 263 262 262 262 262 262 262 262 261 261 262 262 262 262 262 262 262 262 262 262 262 263 263 263 263 263 264 264 264 264 265 265 265 265 265 265 265 265 265 265 266 266 266 266 266 266 266
266 266 267 267 267 266 266 265 265 265 265 265 265 264 264 264 263 263 263 262 262 262 262 262 261 261 261 262 262 262 262 262 262 262 262 263 263 263 263 263 263 263 263 264 264 264 264 264 265 265 265 265 265 265 265 265 266 266 266 266 267 267 267
266 265 265 265 266 266 266 265 265 265 265 265 265 265 265 265 265 264 264 263 263 263 263 262 262 262 262 262 262 262 262 262 262 262 262 262 263 263 263 263 263 263 263 264 264 264 264 264 264 265 265 265 265 265 265 265 265 265 265 266 266 266 266
Height
10223 10224 10226 10227 10229 10229 10230 10230 10230 10231 10232 10233 10234 10235 10236 10236 10236 10237 10237 10236 10236 10237 10238 10239 10240 10240 10240 10239 10239 10240 10241 10242 10243 10244 10246 10247 10247 10248 10248 10248 10251 10255 10254 10251 10250 10248 10246 10245 10246 10248 10249 10249 10250 10250 10250 10251 10253 10254 10255 10256 10256 10255 10255
10207 10208 10210 10211 10212 10213 10213 10214 10214 10214 10215 10217 10218 10218 10219 10219 10220 10221 10221 10221 10222 10222 10222 10224 10225 10225 10224 10224 10224 10225 10226 10227 10227 10228 10230 10231 10231 10232 10232 10232 10234 10238 10239 10238 10236 10235 10232 10230 10231 10233 10234 10233 10233 10234 10234 10235 10237 10238 10238 10240 10240 10241 10241
10191 10193 10194 10194 10195 10196 10197 10197 10197 10198 10198 10199 10200 10201 10201 10202 10203 10205 10205 10206 10206 10206 10206 10208 10209 10209 10209 10208 10209 10210 10211 10211 10211 10212 10213 10214 10214 10215 10216 10216 10217 10221 10223 10223 10222 10222 10220 10216 10215 10216 10218 10217 10217 10218 10219 10220 10221 10222 10222 10224 10224 10226 10226
10175 10176 10177 10178 10179 10179 10180 10181 10181 10182 10182 10183 10184 10184 10185 10186 10187 10188 10189 10189 10190 10190 10190 10192 10193 10193 10192 10192 10193 10195 10195 10195 10195 10195 10196 10198 10199 10200 10200 10200 10201 10203 10207 10209 10209 10209 10208 10204 10201 10201 10203 10203 10201 10202 10203 10203 10205 10206 10207 10208 10208 10209 10210
10158 10159 10160 10161 10162 10163 10164 10164 10165 10165 10166 10166 10167 10168 10168 10169 10170 10172 10172 10173 10173 10174 10174 10175 10176 10176 10175 10176 10178 10179 10179 10179 10179 10179 10181 10183 10183 10184 10184 10184 10185 10187 10190 10193 10195 10194 10193 10191 10188 10188 10189 10189 10187 10187 10188 10188 10189 10190 10190 10191 10192 10193 10193
10142 10143 10143 10144 10145 10146 10147 10148 10149 10149 10149 10150 10151 10151 10152 10153 10154 10155 10156 10156 10157 10157 10158 10159 10159 10160 10159 10160 10162 10163 10163 10163 10163 10164 10166 10168 10168 10168 10169 10169 10171 10172 10174 10177 10179 10179 10180 10179 10175 10173 10175 10175 10174 10174 10174 10174 10174 10173 10173 10173 10174 10176 10178
10126 10127 10127 10128 10129 10129 10130 10131 10132 10133 10134 10134 10135 10135 10136 10137 10138 10139 10139 10139 10140 10140 10141 10143 10143 10144 10144 10145 10146 10147 10148 10148 10148 10149 10150 10152 10152 10152 10153 10155 10156 10157 10158 10161 10163 10165 10166 10166 10163 10160 10160 10162 10160 10159 10161 10160 10157 10156 10156 10157 10160 10162 10163
10110 10111 10111 10112 10112 10113 10114 10115 10116 10117 10118 10119 10119 10120 10120 10121 10122 10123 10123 10123 10123 10124 10125 10126 10127 10128 10129 10130 10130 10132 10133 10133 10133 10134 10135 10136 10136 10136 10138 10139 10140 10141 10143 10145 10147 10150 10150 10151 10151 10149 10147 10148 10145 10144 10146 10143 10139 10141 10143 10144 10145 10146 10147
10094 10095 10095 10096 10097 10097 10098 10099 10100 10101 10102 10103 10104 10104 10104 10105 10106 10107 10108 10108 10108 10108 10109 10110 10111 10112 10113 10113 10114 10115 10117 10117 10117 10118 10120 10121 10120 10121 10122 10123 10124 10125 10127 10128 10131 10134 10134 10135 10138 10137 10135 10134 10132 10129 10128 10127 10127 10130 10130 10128 10128 10131 10133
10077 10078 10079 10080 10080 10081 10082 10082 10083 10084 10085 10086 10087 10087 10088 10088 10090 10091 10092 10092 10093 10093 10094 10094 10095 10096 10096 10097 10098 10099 10100 10101 10101 10102 10104 10105 10105 10105 10106 10107 10108 10110 10110 10112 10114 10117 10118 10120 10123 10123 10120 10119 10117 10114 10113 10113 10115 10116 10115 10115 10117 10119 10120
10059 10060 10061 10061 10062 10063 10064 10065 10066 10067 10068 10069 10069 10071 10071 10072 10073 10074 10075 10076 10077 10078 10078 10079 10079 10080 10080 10081 10081 10082 10083 10084 10085 10086 10087 10088 10089 10089 10090 10091 10092 10093 10094 10095 10097 10100 10102 10105 10108 10107 10104 10103 10101 10099 10098 10098 10099 10101 10102 10103 10105 10106 10105
10041 10042 10043 10043 10044 10045 10045 10046 10047 10048 10050 10051 10052 10053 10054 10056 10057 10058 10059 10059 10060 10060 10061 10062 10063 10063 10064 10064 10065 10066 10067 10067 10068 10068 10069 10071 10072 10072 10073 10074 10075 10077 10077 10078 10080 10083 10087 10090 10091 10088 10087 10087 10084 10082 10083 10083 10085 10088 10088 10087 10089 10091 10091
10022 10023 10024 10026 10026 10027 10027 10028 10029 10030 10031 10033 10034 10035 10036 10038 10040 10041 10042 10042 10043 10043 10044 10044 10045 10046 10047 10047 10048 10049 10050 10050 10051 10051 10052 10053 10054 10055 10056 10056 10057 10059 10059 10060 10063 10066 10071 10073 10071 10070 10071 10070 10067 10066 10069 10070 10070 10072 10071 10071 10074 10076 10076
10005 10006 10007 10008 10009 10010 10010 10010 10010 10012 10013 10015 10017 10018 10019 10022 10025 10025 10025 10025 10026 10027 10027 10027 10027 10028 10029 10030 10031 10032 10033 10033 10033 10034 10035 10036 10037 10038 10039 10039 10040 10041 10041 10042 10045 10049 10054 10055 10052 10052 10055 10052 10050 10051 10053 10055 10054 10054 10055 10056 10060 10061 10062
9988 9989 9990 9991 9992 9994 9994 9993 9993 9994 9995 9997 9999 10000 10002 10005 10008 10008 10008 10008 10009 10010 10011 10011 10011 10011 10011 10012 10013 10014 10016 10017 10017 10017 10018 10018 10019 10021 10022 10022 10023 10024 10023 10025 10028 10032 10036 10037 10034 10035 10036 10035 10034 10035 10036 10037 10037 10037 10039 10041 10044 10046 10047
9972 9972 9973 9974 9975 9977 9978 9977 9977 9978 9979 9979 9980 9982 9984 9987 9989 9991 9991 9992 9993 9994 9994 9994 9994 9992 9992 9993 9995 9997 9999 10000 10001 10001 10002 10003 10003 10004 10005 10006 10006 10006 10007 10010 10012 10014 10018 10019 10018 10017 10018 10018 10018 10018 10019 10018 10019 10022 10025 10025 10026 10030 10031
9954 9955 9955 9956 9957 9959 9961 9960 9959 9960 9962 9962 9962 9964 9966 9969 9971 9973 9974 9976 9977 9977 9976 9975 9974 9974 9975 9977 9978 9980 9981 9981 9982 9985 9987 9987 9986 9986 9987 9989 9989 9988 9990 9993 9994 9997 10000 10002 10002 10002 10002 10001 10001 10002 10002 10000 10003 10010 10010 10005 10007 10014 10015
9937 9937 9937 9938 9939 9940 9942 9942 9942 9942 9943 9944 9944 9946 9948 9951 9953 9955 9957 9958 9958 9958 9957 9957 9958 9959 9959 9961 9962 9962 9963 9962 9963 9967 9969 9969 9969 9970 9971 9973 9972 9971 9974 9976 9977 9979 9982 9984 9986 9986 9986 9986 9985 9985 9985 9984 9989 9994 9991 9986 9990 9995 9995
9919 9919 9920 9920 9921 9922 9923 9923 9923 9924 9925 9926 9926 9927 9929 9932 9935 9937 9938 9939 9939 9940 9941 9942 9942 9942 9941 9943 9945 9945 9945 9945 9944 9946 9947 9948 9951 9955 9957 9957 9954 9954 9958 9959 9960 9962 9965 9967 9969 9969 9969 9971 9971 9970 9969 9971 9974 9974 9971 9971 9974 9974 9973
9902 9902 9902 9902 9902 9903 9904 9905 9906 9906 9907 9907 9907 9907 9910 9914 9916 9918 9918 9920 9922 9923 9924 9925 9925 9924 9924 9926 9928 9928 9928 9927 9926 9927 9928 9929 9932 9937 9940 9939 9937 9938 9941 9942 9943 9945 9947 9948 9951 9952 9952 9954 9954 9953 9953 9955 9958 9957 9954 9955 9956 9955 9956
9885 9885 9884 9883 9884 9885 9886 9888 9889 9890 9889 9889 9889 9889 9891 9894 9897 9898 9899 9902 9904 9905 9906 9907 9907 9907 9907 9908 9910 9911 9912 9911 9910 9910 9912 9913 9914 9917 9920 9920 9920 9922 9924 9924 9926 9928 9928 9929 9932 9934 9936 9937 9936 9936 9936 9936 9938 9939 9938 9938 9937 9936 9939
9867 9868 9867 9866 9865 9866 9868 9869 9871 9872 9872 9871 9871 9871 9872 9875 9877 9879 9881 9884 9887 9888 9888 9889 9890 9890 9890 9889 9890 9891 9893 9895 9895 9895 9896 9898 9899 9899 9900 9901 9903 9906 9908 9907 9908 9910 9911 9912 9913 9914 9916 9917 9918 9919 9919 9918 9919 9920 9921 9922 9921 9920 9922
9850 9850 9850 9849 9848 9849 9850 9851 9853 9854 9854 9854 9853 9853 9854 9855 9858 9860 9862 9866 9869 9870 9871 9873 9874 9873 9871 9870 9870 9872 9873 9876 9879 9880 9881 9882 9882 9882 9882 9883 9885 9888 9890 9891 9892 9893 9894 9896 9897 9896 9894 9895 9897 9900 9901 9900 9900 9901 9902 9904 9907 9906 9905
9834 9834 9833 9833 9832 9832 9833 9834 9835 9835 9835 9836 9835 9835 9835 9837 9839 9842 9845 9848 9851 9852 9853 9854 9855 9854 9853 9854 9854 9855 9856 9858 9860 9862 9864 9865 9865 9864 9865 9865 9867 9870 9872 9874 9876 9877 9877 9879 9881 9880 9878 9877 9878 9879 9879 9880 9881 9883 9884 9886 9888 9889 9888
9817 9817 9817 9817 9817 9816 9816 9816 9817 9817 9817 9817 9818 9818 9819 9820 9822 9825 9827 9830 9832 9833 9834 9835 9835 9835 9836 9837 9837 9837 9839 9841 9842 9844 9845 9847 9847 9847 9847 9848 9850 9851 9853 9855 9858 9859 9859 9861 9864 9864 9862 9862 9862 9861 9859 9859 9861 9863 9866 9868 9869 9870 9870
9801 9800 9800 9800 9800 9800 9799 9798 9799 9799 9798 9798 9800 9801 9802 9804 9805 9807 9809 9811 9814 9815 9816 9817 9818 9819 9818 9818 9818 9820 9822 9824 9825 9826 9827 9828 9829 9829 9830 9831 9833 9834 9835 9837 9839 9840 9840 9842 9845 9845 9845 9845 9846 9845 9843 9842 9842 9845 9848 9849 9849 9849 9850
9784 9783 9783 9783 9784 9783 9782 9781 9781 9780 9780 9781 9783 9785 9785 9786 9788 9789 9791 9793 9795 9796 9798 9800 9801 9800 9799 9799 9801 9803 9806 9808 9808 9808 9808 9809 9810 9811 9812 9814 9815 9817 9818 9819 9821 9822 9822 9824 9826 9827 9828 9828 9828 9828 9828 9828 9826 9827 9829 9831 9830 9829 9831
9766 9766 9766 9767 9767 9767 9766 9766 9765 9762 9762 9764 9767 9768 9769 9770 9771 9772 9773 9774 9776 9777 9779 9781 9782 9781 9781 9783 9786 9788 9790 9791 9792 9792 9791 9790 9791 9792 9793 9795 9797 9799 9800 9802 9803 9804 9805 9807 9808 9809 9811 9811 9810 9811 9813 9813 9811 9810 9812 9812 9812 9811 9814
9748 9748 9749 9750 9751 9750 9750 9749 9747 9745 9745 9747 9749 9751 9753 9754 9755 9756 9756 9757 9758 9759 9761 9762 9763 9763 9764 9765 9768 9771 9773 9774 9774 9775 9774 9774 9774 9775 9775 9777 9779 9781 9783 9785 9786 9787 9788 9789 9790 9792 9793 9794 9794 9795 9796 9796 9795 9795 9795 9795 9795 9796 9798
9730 9731 9732 9733 9734 9734 9734 9733 9731 9729 9729 9730 9731 9733 9735 9737 9738 9739 9740 9741 9741 9742 9744 9745 9746 9746 9747 9747 9749 9753 9755 9756 9757 9757 9757 9758 9758 9758 9758 9759 9760 9762 9765 9767 9768 9770 9771 9772 9773 9775 9776 9777 9777 9778 9779 9778 9778 9779 9779 9779 9779 9780 9782
9715 9714 9715 9716 9718 9718 9717 9717 9716 9714 9712 9712 9713 9715 9717 9719 9721 9722 9723 9724 9725 9726 9728 9729 9729 9729 9729 9730 9732 9735 9737 9739 9739 9739 9740 9741 9742 9741 9741 9741 9743 9745 9747 9749 9750 9752 9753 9755 9756 9758 9759 9760 9761 9761 9762 9762 9762 9762 9763 9764 9765 9765 9765
9698 9700 9700 9700 9700 9700 9700 9700 9700 9699 9697 9695 9696 9698 9701 9703 9704 9705 9705 9707 9708 9710 9712 9713 9713 9713 9713 9713 9715 9717 9719 9721 9721 9722 9723 9725 9725 9725 9724 9725 9726 9728 9730 9731 9732 9734 9735 9737 9739 9741 9743 9744 9744 9745 9746 9747 9747 9747 9747 9749 9751 9750 9749
9680 9682 9684 9685 9685 9684 9684 9684 9682 9681 9681 9680 9680 9682 9684 9687 9687 9688 9689 9691 9692 9693 9695 9695 9696 9697 9697 9697 9699 9700 9702 9703 9704 9705 9707 9709 9710 9709 9708 9709 9711 9712 9713 9714 9715 9716 9718 9720 9722 9724 9725 9727 9728 9729 9730 9731 9731 9731 9732 9733 9735 9736 9735
9666 9666 9667 9669 9669 9669 9669 9668 9665 9664 9664 9664 9665 9667 9668 9669 9670 9671 9674 9675 9676 9677 9678 9679 9679 9680 9682 9682 9683 9684 9685 9686 9687 9689 9691 9693 9694 9694 9693 9694 9696 9697 9698 9699 9699 9700 9702 9703 9705 9707 9708 9709 9711 9712 9713 9714 9715 9715 9716 9717 9719 9720 9721
9654 9654 9654 9653 9652 9653 9654 9652 9650 9649 9648 9649 9650 9652 9652 9652 9653 9655 9657 9659 9661 9662 9662 9662 9663 9664 9666 9667 9668 9669 9669 9670 9671 9673 9676 9678 9678 9678 9678 9679 9680 9682 9683 9684 9684 9685 9686 9687 9688 9690 9692 9693 9694 9695 9696 9697 9698 9699 9700 9701 9702 9703 9705
9637 9641 9642 9641 9638 9637 9637 9636 9636 9635 9634 9634 9636 9637 9637 9637 9638 9639 9640 9643 9646 9647 9647 9647 9648 9650 9651 9652 9653 9654 9654 9655 9655 9658 9661 9663 9664 9663 9663 9664 9665 9666 9668 9668 9669 9670 9671 9672 9673 9674 9675 9677 9678 9679 9680 9681 9682 9683 9684 9685 9686 9688 9689